KKYDRYRI2 Weather Reports


Display with metric or nautical units.
time (UTC)temp
F
wind
direction
speed
MPH
gust
MPH
rain 1hr
in
rain 24hr
in
rain mn
in
humidity
%
barometer
mb
20260505054514 68 344 5.0 11.0 0.00 0.00 0.00 64 1008.2
20260505053524 68 319 5.0 12.0 0.00 0.00 0.00 65 1008.2
20260505052507 68 338 5.0 12.0 0.00 0.00 0.00 65 1008.1
20260505051434 68 355 4.0 12.0 0.00 0.00 0.00 65 1008.3
20260505050454 68 0 4.0 12.0 0.00 0.00 0.00 65 1008.3
20260505040333 68 28 2.0 7.0 0.00 0.00 0.00 67 1008.8
20260505035353 68 355 2.0 8.0 0.00 0.00 0.00 67 1008.6
20260505034353 68 351 2.0 8.0 0.00 0.00 0.00 67 1008.6
20260505033327 68 18 2.0 7.0 0.00 0.00 0.00 67 1008.4
20260505032304 68 343 1.0 5.0 0.00 0.00 0.00 67 1008.4
20260505031237 69 350 1.0 5.0 0.00 0.00 0.00 67 1008.4
20260505025108 68 336 2.0 7.0 0.00 0.00 0.00 68 1008.3
20260505024110 68 10 1.0 6.0 0.00 0.00 0.00 69 1008.2
20260505023121 67 5 0.0 3.0 0.00 0.00 0.00 73 1008.1
20260505022049 68 355 1.0 5.0 0.00 0.00 0.00 69 1007.9
20260505021016 69 0 0.0 5.0 0.00 0.00 0.00 66 1007.7
20260505015953 70 343 1.0 5.0 0.00 0.00 0.00 65 1007.5
20260505011537 72 0 1.0 3.0 0.00 0.00 0.00 61 1007.2
20260505010548 73 0 1.0 7.0 0.00 0.00 0.00 59 1007.2
20260505005526 73 350 1.0 7.0 0.00 0.00 0.00 57 1007.2
20260505004533 74 345 1.0 7.0 0.00 0.00 0.00 56 1007.2
20260505003458 74 355 2.0 9.0 0.00 0.00 0.00 56 1007.4
20260505001337 75 339 3.0 9.0 0.00 0.00 0.00 55 1007.5
20260505000402 75 336 4.0 14.0 0.00 0.00 0.00 55 1007.6
20260504235332 76 333 6.0 14.0 0.00 0.00 0.00 54 1007.4
20260504234319 76 320 4.0 14.0 0.00 0.00 0.00 54 1007.5
20260504233323 76 15 3.0 10.0 0.00 0.00 0.00 54 1007.7
20260504232313 76 5 3.0 10.0 0.00 0.00 0.00 53 1007.9
20260504231257 77 18 3.0 10.0 0.00 0.00 0.00 52 1007.9
20260504230301 77 350 3.0 10.0 0.00 0.00 0.00 52 1008.0
20260504225255 77 335 4.0 16.0 0.00 0.00 0.00 52 1008.2
20260504224250 77 328 5.0 16.0 0.00 0.00 0.00 52 1008.2
20260504223216 77 61 4.0 15.0 0.00 0.00 0.00 51 1008.3
20260504222149 77 5 4.0 15.0 0.00 0.00 0.00 51 1008.2
20260504221135 77 284 3.0 10.0 0.00 0.00 0.00 50 1008.7
20260504220118 77 355 3.0 10.0 0.00 0.00 0.00 51 1008.5
20260504215142 77 27 3.0 14.0 0.00 0.00 0.00 51 1008.6
20260504214202 77 62 5.0 14.0 0.00 0.00 0.00 50 1008.8
20260504213221 78 21 3.0 9.0 0.00 0.00 0.00 49 1008.7
20260504212233 79 165 4.0 12.0 0.00 0.00 0.00 48 1008.9
20260504211230 78 140 4.0 12.0 0.00 0.00 0.00 48 1008.8
20260504210218 78 60 3.0 12.0 0.00 0.00 0.00 52 1008.8
20260504205150 78 303 3.0 16.0 0.00 0.00 0.00 51 1008.9
20260504204203 77 328 4.0 16.0 0.00 0.00 0.00 52 1008.9
20260504203223 78 320 5.0 16.0 0.00 0.00 0.00 53 1009.1
20260504201136 77 5 4.0 12.0 0.00 0.00 0.00 56 1009.3
20260504194949 78 311 3.0 14.0 0.00 0.00 0.00 55 1009.7
20260504194013 77 194 4.0 14.0 0.00 0.00 0.00 55 1009.7
20260504193020 76 335 3.0 12.0 0.00 0.00 0.00 55 1009.8
20260504191950 76 98 3.0 13.0 0.00 0.00 0.00 55 1010.1
20260504185806 76 47 3.0 12.0 0.00 0.00 0.00 57 1010.2
20260504184802 75 322 4.0 14.0 0.00 0.00 0.00 57 1010.1
20260504183735 75 347 4.0 14.0 0.00 0.00 0.00 58 1010.2
20260504181535 73 355 6.0 19.0 0.00 0.00 0.00 60 1010.0
20260504180557 73 54 6.0 15.0 0.00 0.00 0.00 61 1010.2
20260504175527 72 326 4.0 18.0 0.00 0.00 0.00 62 1010.1
20260504174518 71 350 7.0 18.0 0.00 0.00 0.00 64 1010.4
20260504173459 71 351 5.0 13.0 0.00 0.00 0.00 63 1010.5
20260504172517 70 26 6.0 14.0 0.00 0.00 0.00 64 1010.4
20260504171448 69 342 7.0 17.0 0.00 0.00 0.00 65 1010.5
20260504170414 68 338 8.0 18.0 0.00 0.00 0.00 66 1010.5
20260504160323 64 355 3.0 11.0 0.00 0.00 0.00 70 1011.8
20260504130702 56 355 5.0 16.0 0.00 0.00 0.00 76 1012.1
20260504110244 57 348 2.0 11.0 0.00 0.00 0.00 71 1012.1
20260504081637 56 9 2.0 10.0 0.00 0.00 0.00 65 1012.8
20260504080643 56 314 3.0 8.0 0.00 0.00 0.00 65 1012.8